Location: Rooftop Observatory
(39.0308°N, 87.1711°W)
Time: 03:30:53
(UTC-05:00)

Daily predictions for brighter satellites

Satellite Brightness Start Highest point End
(mag) Time Altitude Azimuth Time Altitude Azimuth Time Altitude Azimuth
ATLAS 2AS CENTAUR R/B 4.3 02:37:57 33° N 02:37:57 33° N 02:42:19 10° NNE
Cosmos 2344 4.3 02:57:12 50° ENE 02:57:12 50° ENE 03:03:39 10° NE
Resurs 1-4 Rocket 4.3 03:07:22 10° NNE 03:09:11 21° NNE 03:09:11 21° NNE
Lacrosse 5 4.0 03:27:02 23° ENE 03:27:02 23° ENE 03:29:02 10° NE
USA 215 4.5 03:22:00 10° SE 03:25:08 31° ESE 03:25:08 31° ESE
NOSS 3-2 (C) 4.4 03:35:06 10° NNW 03:42:30 58° NE 03:50:26 10° SE
Lacrosse 5 rocket 4.2 03:49:25 14° N 03:49:25 14° N 03:50:20 10° NNE
SL-16 R/B 4.3 03:52:16 20° NNW 03:52:16 20° NNW 03:54:05 10° NNW
Cosmos 1605 Rocket 4.0 03:56:05 10° N 04:02:13 79° ENE 04:02:13 79° ENE
Cosmos 2237 Rocket 2.6 03:59:02 10° NNW 04:05:43 55° ESE 04:10:15 10° SSE
CZ-4B R/B 4.3 03:59:49 10° NNE 04:04:56 40° E 04:07:14 27° SSE
NOSS 3-4 (A) 3.5 04:05:23 76° N 04:05:23 76° N 04:11:31 10° NNE
NOSS 3-4 (C) 3.5 04:05:28 77° N 04:05:28 77° N 04:11:37 10° NNE
ATLAS 5 CENTAUR R/B 2.6 04:04:00 38° NNW 04:06:25 68° NE 04:12:53 10° SE
ADEOS II 4.4 04:03:57 10° NE 04:07:51 21° E 04:11:43 10° SE
Cosmos 1680 Rocket 4.3 04:09:02 10° NNW 04:16:33 35° SSE 04:19:33 10° SSE
Okean O Rocket 2.2 04:18:47 10° NNE 04:22:16 54° NE 04:22:16 54° NE
Cosmos 1606 Rocket 4.4 04:19:00 10° N 04:23:15 49° E 04:25:37 24° SE
SL-16 R/B 3.3 04:19:34 10° N 04:25:00 44° ENE 04:30:23 10° SE
CZ-2D R/B 3.6 04:25:21 10° N 04:27:40 23° NNW 04:27:40 23° NNW
Meteor 1-13 Rocket 4.2 04:33:02 64° WNW 04:33:02 64° WNW 04:38:44 10° N
Cosmos 1726 Rocket 4.2 04:29:35 10° N 04:33:54 54° E 04:38:09 10° SSE
Cosmos 2227 Rocket 2.3 04:35:40 54° WNW 04:35:40 54° WNW 04:41:04 10° NNE
Cosmos 2061 Rocket 4.5 04:34:42 10° N 04:40:57 62° E 04:47:15 10° SSE
Cosmos 2100 Rocket 4.3 04:35:01 10° N 04:41:14 69° E 04:47:30 10° SSE
RESURS DK-1 3.2 04:45:27 39° NNW 04:45:27 39° NNW 04:48:26 10° NNE
Cosmos 2297 Rocket 2.1 04:43:49 57° WSW 04:44:39 64° WNW 04:50:16 10° NNE
Cosmos 1892 Rocket 3.7 04:43:29 42° S 04:44:57 77° E 04:49:27 10° N
Cosmos 1346 Rocket 2.7 04:45:29 80° NNE 04:45:29 80° NNE 04:49:17 10° N
Thor Agena Rocket 3.9 04:42:41 10° SSE 04:47:55 67° ENE 04:53:11 10° N
Aureole 2 Rocket 4.3 04:45:15 10° N 04:48:18 29° ENE 04:51:05 10° SE
IRS-1C Rocket 4.0 04:44:13 10° N 04:49:26 62° WNW 04:50:31 50° WSW
Cosmos 2150 Rocket 4.2 04:47:14 21° S 04:50:37 66° ESE 04:55:44 10° NNE
PSLV R/B 4.1 04:47:25 10° NNE 04:51:42 58° E 04:55:25 13° S
Resurs 1-4 Rocket 3.8 04:48:10 10° NNW 04:50:15 18° NW 04:50:15 18° NW
CZ-2C R/B 3.6 04:51:41 60° SW 04:52:02 62° WSW 04:56:38 10° NNW
Tiangong 1 2.4 04:53:55 35° NNE 04:53:55 35° NNE 04:56:10 10° ENE
NOSS 3-2 (A) 4.2 04:47:32 10° NW 04:54:47 47° WSW 05:02:27 10° S
Cosmos 2228 3.6 04:57:51 10° N 05:02:12 60° E 05:06:30 10° SSE
CZ-4B DEB 4.2 05:00:01 10° N 05:05:26 62° WNW 05:09:02 22° SSW
Cosmos 292 Rocket 3.7 05:00:42 10° NNW 05:05:34 69° WSW 05:10:22 10° S
Lacrosse 5 2.9 05:06:15 28° WNW 05:07:17 30° NW 05:11:46 10° NNE
Cosmos 2098 Rocket 3.7 05:06:06 10° N 05:10:04 61° E 05:15:08 10° SSE
Cosmos 1000 Rocket 4.4 05:04:00 10° S 05:10:19 79° W 05:16:41 10° N
BREEZE M DEB (TANK) 3.9 05:09:00 22° NW 05:10:37 30° N 05:17:52 10° ENE
USA 215 4.0 05:06:27 10° S 05:11:52 27° SW 05:12:34 27° WSW
OTV 4 2.9 05:16:00 12° S 05:16:00 12° S 05:16:25 10° SSE
Cosmos 2016 Rocket 4.0 05:09:05 10° N 05:15:28 85° E 05:21:44 10° S
DELTA 2 R/B (1) 3.5 05:13:35 32° WSW 05:16:17 83° SSE 05:21:53 10° E
Cosmos 724 4.3 05:11:57 10° NW 05:18:12 73° WSW 05:24:22 10° SSE
Cosmos 1898 Rocket 3.5 05:14:55 19° SSW 05:18:39 63° WNW 05:23:55 10° NNE
Cosmos 2173 Rocket 3.9 05:14:53 10° NNW 05:20:54 63° W 05:26:56 10° S
Meteor 1-15 Rocket 4.2 05:18:43 10° NNW 05:24:13 61° W 05:29:44 10° S
Meteor 1-31 Rocket 3.4 05:21:00 10° NNE 05:24:52 58° E 05:28:44 10° S
ADEOS Rocket 3.3 05:18:28 10° N 05:25:26 59° WNW 05:31:41 10° SSW
Genesis I 4.1 05:22:22 10° SSW 05:26:14 49° ESE 05:30:06 10° NE
Cosmos 2058 Rocket 3.2 05:23:16 10° NNW 05:27:27 47° W 05:31:38 10° SSW
Cosmos 1459 Rocket 4.1 05:21:47 10° NNW 05:27:57 54° W 05:34:03 10° SSW
CENTAUR R/B 3.3 05:20:18 10° NNW 05:28:14 79° ENE 05:36:36 10° SE
Okean-O 2.5 05:23:56 10° N 05:28:22 68° WNW 05:32:45 10° SSW
NOSS 2-2 (D) 3.6 05:26:12 13° SSW 05:29:50 76° ESE 05:34:26 10° NE
USA 129 2.7 05:28:52 10° SSE 05:30:43 41° ENE 05:32:27 10° N
Cosmos 1937 Rocket 3.4 05:25:51 10° SSW 05:31:02 68° WNW 05:36:18 10° NNE
CZ-4B R/B 4.1 05:27:20 10° NNW 05:31:04 27° WNW 05:32:25 23° W
Cosmos 2123 Rocket 4.0 05:26:04 10° S 05:32:15 86° E 05:38:27 10° N
OAO 2 Rocket 4.3 05:30:23 17° SW 05:34:03 41° SSE 05:39:03 10° E
Cosmos 1515 3.6 05:34:17 10° S 05:38:06 90° WNW 05:41:57 10° N
COSMO-SKYMED 1 4.1 05:34:45 10° SE 05:38:48 40° ENE 05:42:52 10° N
Cosmos 1666 3.9 05:37:10 10° NW 05:40:12 22° W 05:41:53 17° SW
Feng Yun 1-1 Rocket 4.3 05:35:21 10° N 05:40:57 66° WNW 05:46:42 10° SSW
USA 116 4.3 05:35:57 10° S 05:41:00 56° W 05:45:37 10° NNW
NOAA 6 4.4 05:36:59 10° NNE 05:42:11 70° ESE 05:47:20 10° S
OE (NEXTSAT) 4.4 05:40:04 18° WNW 05:42:35 71° SSW 05:46:12 10° SE
NOSS 2-2 (C) 3.4 05:41:10 10° SW 05:45:11 74° NW 05:49:52 10° NNE
CZ-4B R/B 4.2 05:40:52 10° NNW 05:45:16 26° WNW 05:49:08 12° WSW
NOSS 2-2 (E) 3.6 05:42:57 12° SW 05:46:48 64° NW 05:51:34 10° NNE
EXPRESS MD2 3.8 05:43:31 11° NW 05:46:48 81° NE 05:53:50 10° ESE
ADEOS II 2.4 05:42:45 10° N 05:47:46 45° WNW 05:52:45 10° SW
Cosmos 2237 Rocket 3.6 05:48:08 15° W 05:48:08 15° W 05:51:04 10° SW
ATLAS 5 CENTAUR R/B 3.6 05:46:13 10° WNW 05:50:45 21° WSW 05:55:28 10° SSW
Cosmos 1340 3.3 05:47:48 10° S 05:51:32 60° E 05:55:17 10° NNE
Cosmos 2227 4.2 05:48:02 10° SSW 05:53:46 70° WNW 05:59:32 10° NNE
Cosmos 1626 Rocket 3.8 05:52:13 10° SSW 05:56:27 47° W 06:00:40 10° N
Okean O Rocket 3.6 05:58:21 10° NW 05:58:54 10° WNW 05:59:27 10° WNW
Radarsat Rocket 4.2 05:55:15 10° NNE 06:01:59 86° ESE 06:08:01 10° SSW
Iridium 4 Rocket 4.2 06:00:47 10° SSE 06:05:37 56° E 06:10:04 10° NNE
NOSS 5 (C) 4.3 06:04:05 10° SSW 06:07:41 86° ESE 06:10:48 10° NE
SL-16 R/B 3.2 06:04:18 10° NW 06:08:48 25° WSW 06:13:16 10° SSW
CZ-4 R/B 4.3 06:06:22 10° NE 06:09:32 22° E 06:12:45 10° SSE
Delta 2 Rocket 4.3 06:07:28 10° WSW 06:10:42 26° SSW 06:13:40 10° SE
SL-24 R/B 3.9 06:09:24 10° N 06:13:39 64° WNW 06:17:25 10° SSW
Cosmos 1953 Rocket 4.4 06:09:53 10° S 06:14:14 58° E 06:18:39 10° NNE
Cosmos 1066 Rocket 4.3 06:12:03 10° SSW 06:17:38 66° W 06:23:24 10° N
Cosmos 2233 Rocket 4.0 06:16:47 10° NNW 06:23:01 69° W 06:29:10 10° S
